FW6259 Weather Reports


time (UTC)temp
F
wind
direction
speed
knots
gust
knots
rain 1hr
in
rain 24hr
in
rain mn
in
humidity
%
barometer
mb
20260505070059 42 109 0.0 1.7 0.02 0.26 0.24 96 1009.5
20260505064559 42 193 0.9 4.3 0.02 0.30 0.24 96 1009.6
20260505063050 42 182 0.0 2.6 0.02 0.28 0.23 96 1009.9
20260505061557 42 245 0.0 3.5 0.03 0.28 0.23 96 1010.1
20260505060054 42 279 1.7 3.5 0.02 0.28 0.22 96 1010.4
20260505054648 43 224 0.9 1.7 0.02 0.35 0.22 96 1010.6
20260505053059 43 219 0.9 4.3 0.02 0.34 0.21 95 1010.7
20260505051556 43 242 0.0 0.9 0.01 0.33 0.20 96 1011.0
20260505041604 44 65 0.0 1.7 0.05 0.39 0.19 95 1011.8
20260505040049 44 338 0.0 0.9 0.06 0.39 0.19 96 1012.1
20260505034501 44 215 0.0 1.7 0.06 0.42 0.17 95 1012.6
20260505033055 45 257 0.0 0.9 0.05 0.40 0.15 95 1012.8
20260505031553 45 262 0.0 0.9 0.05 0.39 0.14 95 1012.8
20260505030107 45 274 0.0 0.9 0.06 0.38 0.13 95 1013.0
20260505024610 45 254 0.0 0.0 0.06 0.42 0.11 94 1013.2
20260505023049 46 237 0.9 1.7 0.06 0.41 0.10 93 1013.4
20260505021554 46 320 0.0 2.6 0.05 0.40 0.09 89 1013.4
20260505020103 47 221 0.0 1.7 0.03 0.38 0.07 89 1013.6
20260505014555 47 224 0.9 1.7 0.01 0.39 0.05 86 1013.8
20260505013046 48 147 0.9 1.7 0.00 0.38 0.04 83 1013.9
20260505011545 48 88 0.9 4.3 0.00 0.38 0.04 83 1014.0
20260505010112 49 169 0.9 4.3 0.00 0.38 0.04 81 1014.4
20260505004551 49 160 1.7 7.8 0.00 0.41 0.04 80 1014.8
20260505003003 48 253 3.5 9.6 0.01 0.41 0.04 79 1015.1
20260505001518 49 148 1.7 5.2 0.02 0.41 0.04 83 1015.4
20260505000011 48 79 0.9 4.3 0.02 0.41 0.04 87 1015.8
20260504234521 48 96 1.7 4.3 0.02 0.43 0.04 88 1016.2
20260504233036 48 81 0.9 2.6 0.01 0.42 0.03 88 1016.5
20260504231508 48 105 0.0 2.6 0.00 0.41 0.02 86 1016.7
20260504230005 48 120 1.7 0.0 0.00 0.00 0.02 86 1016.7
20260504224524 48 109 0.9 3.5 0.00 0.43 0.02 82 1016.8
20260504223008 48 82 0.0 2.6 0.00 0.43 0.02 87 1017.2
20260504221625 48 38 0.0 1.7 0.00 0.43 0.02 86 1017.4
20260504220059 47 6 0.0 1.7 0.00 0.43 0.02 89 1017.5
20260504214555 46 360 0.0 1.7 0.00 0.44 0.02 89 1017.7
20260504213044 46 6 0.0 1.7 0.00 0.44 0.02 90 1018.2
20260504211602 46 72 0.0 2.6 0.00 0.44 0.02 91 1018.3
20260504204550 45 126 0.0 0.9 0.01 0.44 0.02 90 1018.9
20260504203044 44 132 0.0 1.7 0.01 0.44 0.02 90 1019.2
20260504201602 44 352 0.0 2.6 0.00 0.43 0.01 92 1019.2
20260504200059 44 97 0.9 1.7 0.00 0.43 0.01 92 1019.3
20260504194506 44 46 0.0 1.7 0.00 0.43 0.01 92 1019.3
20260504193055 43 51 0.0 2.6 0.00 0.43 0.01 92 1019.4
20260504191605 42 74 0.0 3.5 0.00 0.43 0.01 93 1019.6
20260504190100 42 70 0.9 4.3 0.00 0.43 0.01 92 1019.9
20260504184557 41 84 0.9 4.3 0.00 0.43 0.01 92 1019.9
20260504183046 41 84 0.9 5.2 0.00 0.43 0.01 94 1020.0
20260504181545 41 99 1.7 6.1 0.00 0.43 0.01 93 1020.2
20260504180055 41 62 0.9 5.2 0.00 0.43 0.01 93 1020.3
20260504174556 42 90 1.7 4.3 0.00 0.43 0.01 92 1020.5
20260504173043 42 17 0.0 2.6 0.00 0.43 0.01 92 1020.4
20260504171556 42 88 0.9 2.6 0.00 0.43 0.01 92 1020.5
20260504120105 35 118 0.9 5.2 0.00 0.43 0.01 96 1021.5
20260504081510 34 6 1.7 6.1 0.02 0.43 0.01 96 1022.1